Regional Weather Roundup
Issued by NWS San Angelo, TX

Home | Current Version | Previous Version | Text Only | Print | Product List | Glossary On
Versions: 1 2 3 4 5 6 7 8 9 10 11 12 13 14 15 16 17 18 19 20 21 22 23 24 25 26 27 28 29 30 31 32 33 34 35 36 37 38 39 40 41 42 43 44 45 46 47 48 49 50
000
ASUS44 KSJT 020802
RWRSJT
WEST CENTRAL TEXAS REGIONAL WEATHER ROUNDUP
NATIONAL WEATHER SERVICE SAN ANGELO TX
200 AM CST MON MAR 02 2015

NOTE: "FAIR" INDICATES FEW OR NO CLOUDS BELOW 12,000 FEET WITH NO
SIGNIFICANT WEATHER AND/OR OBSTRUCTIONS TO VISIBILITY.

TXZ049-054-064>066-071>073-076>078-098-099-113-114-127-128-139-140-
154-155-168>170-020900
...LOCATIONS ACROSS WEST CENTRAL TEXAS...

CITY           SKY/WX    TMP DP  RH WIND       PRES   REMARKS
SAN ANGELO     CLOUDY    34  32  92 NE10      30.34S WCI  26
ABILENE        CLOUDY    32  31  96 NE7       30.36F WCI  26
DYESS AFB      CLOUDY    32  29  87 CALM      30.36F
JUNCTION       CLOUDY    36  35  96 N6        30.32F FOG     WCI  31
SWEETWATER     NOT AVBL
BROWNWOOD      CLOUDY    34  32  93 N7        30.37F FOG     WCI  28
COLEMAN        NOT AVBL
SONORA         NOT AVBL
OZONA          NOT AVBL
BRADY          NOT AVBL
$$

TEXAS PANHANDLE/OKLAHOMA PANHANDLE

CITY           SKY/WX    TMP DP  RH WIND       PRES   REMARKS
AMARILLO       CLOUDY    28  25  88 NE5       30.35F WCI  23
BORGER         CLOUDY    30  23  75 NE6       30.38S WCI  24
CANADIAN       CLOUDY    31  26  80 E5        30.40F WCI  26
DALHART        CLOUDY    26  21  81 S5        30.35F HAZE    WCI  20
DUMAS          CLOUDY    26  22  87 CALM      30.35F FOG
GUYMON         NOT AVBL
HEREFORD       NOT AVBL
PAMPA          NOT AVBL
PERRYTON       NOT AVBL
$$

SOUTHERN PANHANDLE/SOUTH PLAINS/ROLLING PLAINS

CITY           SKY/WX    TMP DP  RH WIND       PRES   REMARKS
LUBBOCK        CLOUDY    30  28  92 NE9       30.35F FOG     WCI  22
SNYDER         NOT AVBL
CHILDRESS      CLOUDY    31  27  85 NE3       30.43S
SEMINOLE       CLOUDY    31  31 100 NE8       30.35S FOG     WCI  23
$$

PERMIAN BASIN

CITY           SKY/WX    TMP DP  RH WIND       PRES   REMARKS
MIDLAND        CLOUDY    32  31  96 NE10      30.34R FOG     WCI  24
ODESSA         CLOUDY    32  30  92 NE12      30.33F FOG     WCI  23
WINK           CLOUDY    35  31  85 NE10      30.31F FOG     WCI  27
$$

FAR WEST/SOUTHWEST MOUNTAINS/TRANS PECOS

CITY           SKY/WX    TMP DP  RH WIND       PRES   REMARKS
ALPINE         NOT AVBL
DRYDEN           N/A     41  40  96 NE12      30.26F WCI  34
EL PASO        CLOUDY    58  30  34 CALM      30.08S
FORT STOCKTON  FOG       34  34 100 NE9       30.30S VSB 1/2 WCI  27
GUADALUPE PASS NOT AVBL
MARFA          MOCLDY    41  36  81 NE5       30.23R WCI  38
PECOS          CLOUDY    35  34  95 NE12      30.33S FOG     WCI  27
$$

DALLAS/FORT WORTH METROPLEX

CITY           SKY/WX    TMP DP  RH WIND       PRES   REMARKS
DFW AIRPORT    LGT RAIN  35  32  88 N15       30.39R FOG     WCI  25
FTW MEACHAM    MIX PCPN  35  32  88 N9        30.40S FOG     WCI  28
DAL-EXECUTIVE  CLOUDY    35  34  96 N8        30.38R FOG     WCI  29
GRAND PRAIRIE  CLOUDY    36  36 100 N10       30.41S WCI  28
ADDISON        NOT AVBL
MESQUITE       CLOUDY    36  35  96 N10       30.40R WCI  28
LANCASTER      DRIZZLE   36  34  92 N9        30.40R WCI  29
$$

NORTH CENTRAL TEXAS

CITY           SKY/WX    TMP DP  RH WIND       PRES   REMARKS
SHRMAN/DENISON CLOUDY    35  34  99 N12       30.40F WCI  26
GAINESVILLE    NOT AVBL
BRIDGEPORT     CLOUDY    34  34 100 N6        30.43F WCI  29
DENTON         LGT RAIN  34  32  92 N10       30.41R FOG     WCI  26
WAXAHACHIE     DRIZZLE   36  36 100 N13       30.38F WCI  27
GRANBURY       CLOUDY    37  34  92 N7        30.42S FOG     WCI  31
$$

WESTERN NORTH TEXAS

CITY           SKY/WX    TMP DP  RH WIND       PRES   REMARKS
WICHITA FALLS  CLOUDY    33  27  78 N12       30.43F WCI  24
VERNON         CLOUDY    35  25  69 N7        30.44F WCI  29
BRECKENRIDGE   NOT AVBL
COMANCHE       CLOUDY    33  33 100 N10G18    30.38S FOG     WCI  25
$$

CENTRAL AND SOUTH CENTRAL TEXAS

CITY           SKY/WX    TMP DP  RH WIND       PRES   REMARKS
AUSTIN/BERGSTM DRIZZLE   39  38  96 N13       30.32S FOG     WCI  31
WACO           CLOUDY    37  35  92 N10       30.37S FOG     WCI  30
HILLSBORO      NOT AVBL
TEMPLE         CLOUDY    37  32  81 N14       30.34S WCI  29
KILLEEN-GRAY   LGT RAIN  36  36 100 N15       30.33F FOG     WCI  26
FORT HOOD      LGT SNOW  36  36 100 N13       30.33F FOG     WCI  27
GEORGETOWN     CLOUDY    37  36  93 N10       30.33F WCI  30
LAGO VISTA     RAIN      38  37  96 N8        30.32S WCI  32
SAN MARCOS     CLOUDY    39  37  93 N12       30.32S WCI  32
NEW BRAUNFELS  LGT RAIN  41  41 100 N14       30.29F FOG     WCI  33
RANDOLPH AFB   LGT RAIN  41  40  96 N16       30.28S WCI  33
SAN ANTONIO    DRIZZLE   43  40  89 N12       30.28F FOG     WCI  37
STINSON        LGT RAIN  43  41  93 N8        30.28S FOG     WCI  38
PLEASANTON     NOT AVBL
LA GRANGE      NOT AVBL
GIDDINGS       CLOUDY    40  39  99 N10       30.34S FOG     WCI  33
$$

EAST TEXAS

CITY           SKY/WX    TMP DP  RH WIND       PRES   REMARKS
PARIS          CLOUDY    36  32  87 N12       30.38S WCI  27
CLARKSVILLE    NOT AVBL
TYLER          CLOUDY    42  40  92 N7        30.32F FOG     WCI  38
LONGVIEW       CLOUDY    43  41  93 N3        30.32F FOG
PALESTINE      DRIZZLE   42  42 100 N6        30.33F WCI  39
NACOGDOCHES    CLOUDY    45  43  93 NE3       30.31F
$$

TEXAS HILL COUNTRY AND EDWARDS PLATEAU

CITY           SKY/WX    TMP DP  RH WIND       PRES   REMARKS
LLANO          NOT AVBL
HORSESHOE BAY  CLOUDY    38  38 100 N6        30.34S WCI  33
KERRVILLE      CLOUDY    38  37  96 N3        30.30F FOG
FREDERICKSBRG  NOT AVBL
ROCKSPRINGS    NOT AVBL
HONDO          CLOUDY    44  42  93 NE7       30.29F
UVALDE         CLOUDY    46  46  99 NE5       30.28F FOG
DEL RIO        CLOUDY    46  45  96 N6        30.27F FOG
$$

SOUTHEAST TEXAS

CITY           SKY/WX    TMP DP  RH WIND       PRES   REMARKS
COLLEGE STN    CLOUDY    41  41 100 N8        30.31S FOG     WCI  36
CALDWELL       NOT AVBL
CROCKETT       NOT AVBL
BRENHAM        NOT AVBL
HUNTSVILLE     FOG       45  45 100 VRB6      30.29S VSB 1
CONROE         FOG       46  45  96 N6        30.28F VSB 1
HOUSTON BUSH   FOG       48  48 100 N10       30.27R VSB 1/4
HOUSTON HOBBY  FOG       51  51 100 N10       30.25S VSB 1/2
PERLAND        CLOUDY    54  53  97 VRB6      30.25F FOG
WHARTON        NOT AVBL
$$

THE UPPER TEXAS COAST

CITY           SKY/WX    TMP DP  RH WIND       PRES   REMARKS
ORANGE         RAIN      59  59 100 N5        30.24F
PORT ARTHUR    LGT RAIN  59  58  96 N6        30.23S FOG
GALVESTON      CLOUDY    53  53 100 N14       30.23F FOG
ANGLETON       CLOUDY    52  52 100 N8        30.23F FOG
BAY CITY       FOG       50  50 100 N8        30.25R VSB 1
$$

TEXAS COASTAL BEND, RIO GRANDE PLAINS DEEP SOUTH TEXAS

CITY           SKY/WX    TMP DP  RH WIND       PRES   REMARKS
VICTORIA       CLOUDY    47  46  97 N12       30.26F
BEEVILLE       CLOUDY    46  46 100 N7        30.26S FOG
ROCKPORT       CLOUDY    48  46  93 N12       30.24F FOG
PORT ARANSAS   NOT AVBL
PORT LAVACA    CLOUDY    47  47  99 N12       30.26S FOG
CORPUS CHRISTI LGT RAIN  48  47  96 N10       30.25S FOG
KINGSVILLE NAS CLOUDY    49  49 100 N8        30.24F FOG
COTULLA        CLOUDY    47  44  90 NE8       30.27F
LAREDO         CLOUDY    48  47  97 NE7       30.27S
BROWNSVILLE    CLOUDY    54  53  97 N7        30.21F FOG
PORT ISABEL    CLOUDY    54  53  97 N10       30.21F FOG
HEBBRONVILLE   NOT AVBL
MCALLEN        CLOUDY    55  52  89 N6        30.24S FOG
WESLACO        NOT AVBL
FALFURRIAS     CLOUDY    50  48  93 N5        30.24S
EDINBURG       CLOUDY    54  52  92 N5        30.24S FOG
$$


USA.gov is the U.S. government's official web portal to all federal, state and local government web resources and services.